Regional Weather Roundup
Issued by NWS

Home | Current Version | Previous Version | Graphics & Text | Print | Product List | Glossary On
Versions: 1 2 3 4 5 6 7 8 9 10 11 12 13 14 15 16 17 18 19 20 21 22 23 24 25 26 27 28 29 30 31 32 33 34 35 36 37 38 39 40 41 42 43 44 45 46 47 48 49 50
000
ASUS43 KMPX 250101
RWRMN
WEATHER ROUNDUP FOR MINNESOTA
NATIONAL WEATHER SERVICE TWIN CITIES/CHANHASSEN MN
800 PM CDT TUE APR 24 2018


NOTE: "FAIR" INDICATES FEW OR NO CLOUDS BELOW 12,000 FEET WITH NO
SIGNIFICANT WEATHER AND/OR OBSTRUCTIONS TO VISIBILITY. N/A MEANS
CURRENT SKY AND/OR WEATHER CONDITIONS ARE NOT AVAILABLE.

MNZ060>063-068>070-250200-
   Twin Cities Metro

CITY           SKY/WX    TMP DP  RH WIND       PRES   REMARKS
TWIN CITIES    FAIR      54  32  43 N14G26    30.19R
ST PAUL        FAIR      53  35  50 N12       30.19S
CRYSTAL        FAIR      53  30  41 N9        30.19S
BLAINE         PTCLDY    54  32  43 N8        30.19S
LAKEVILLE      FAIR      52  36  54 N13G18    30.18R
EDEN PRAIRIE   FAIR      53  30  41 N8        30.18S
SOUTH ST PAUL  FAIR      54  33  46 N7        30.18S
LAKE ELMO      FAIR      54  36  50 N3        30.19S
$$
MNZ001>005-007-008-013>017-022>024-027-028-250200-
   Northwest Minnesota

CITY           SKY/WX    TMP DP  RH WIND       PRES   REMARKS
BEMIDJI        FAIR      41  22  47 N12       30.29S
HALLOCK        FAIR      50  18  27 NE6       30.33S
ROSEAU         FAIR      48  32  53 N5        30.31F
WARROAD        FAIR      41  27  56 E3        30.32F
THIEF RVR FALL FAIR      47  25  42 N9        30.33R
CROOKSTON      FAIR      48  30  49 N8        30.34S
FOSSTON        FAIR      46  27  46 N10       30.31S
DETROIT LAKES  FAIR      46  28  49 N8        30.30S
MOORHEAD       FAIR      48  28  46 N14       30.34R
PARK RAPIDS    FAIR      49  22  34 N13       30.26R
MAHNOMEN       FAIR      46  27  47 N12       30.30S
$$
MNZ006-009>011-018-025>026-250200-
   North Central Minnesota

CITY           SKY/WX    TMP DP  RH WIND       PRES   REMARKS
BAUDETTE       FAIR      41  23  48 N3        30.31S
FLAG ISLAND    FAIR      43  19  39 CALM      30.30F
INTL FALLS     FAIR      42  21  43 N8        30.29S
WASKISH        FAIR      39  25  56 NW6       30.31S
BIG FORK       FAIR      43  23  45 N5        30.28R
LONGVILLE      FAIR      45  25  45 N3        30.26R
GRAND RAPIDS   FAIR      44  25  47 N14       30.26R
CRANE LAKE     FAIR      37  21  52 N3        30.30F
ORR            FAIR      39  19  45 CALM      30.26S
COOK           FAIR      39  21  48 N7        30.27S
WALKER         FAIR      42  23  47 N10       30.27S
$$
MNZ012-019>021-037-250200-
   Northeast Minnesota

CITY           SKY/WX    TMP DP  RH WIND       PRES   REMARKS
DULUTH         FAIR      46  27  47 N13G20    30.20R
ELY            FAIR      37  19  48 N8        30.26R
HIBBING        FAIR      41  22  46 N12       30.24R
EVELETH        FAIR      41  23  48 N7        30.26R
DULUTH HARBOR  FAIR      46  30  53 N12       30.22R
TWO HARBORS    FAIR      50  28  43 N7        30.19R
SILVER BAY     FAIR      45  25  45 NW8       30.20R
GRAND MARAIS     N/A     43  24  47 N16G28    30.21R
G MARAIS ARPRT FAIR      36  19  51 NW12G17   30.21R
$$
MNZ029>031-032-039>041-046>048-054>057-064-250200-
   West Central Minnesota

CITY           SKY/WX    TMP DP  RH WIND       PRES   REMARKS
FERGUS FALLS   FAIR      48  30  49 N12G17    30.27S
WHEATON        CLEAR     48  30  49 N15G21    30.32F
MORRIS         CLEAR     48  36  61 NW14      30.27S
ALEXANDRIA     FAIR      50  30  46 NW10      30.26S
ELBOW LAKE     FAIR      47  30  51 N13G18    30.28S
WADENA         FAIR      48  30  49 N10       30.26R
GLENWOOD       FAIR      48  34  57 NW9       30.26R
APPLETON       CLEAR     48  34  57 N13       30.27S
BENSON         CLEAR     48  30  49 NE10      30.28R
ORTONVILLE     CLEAR     48  32  53 N18       30.29R
WILLMAR        FAIR      48  34  57 NW13      30.26S
$$
MNZ033>034-036-042>043-049>051-058-059-250200-
   Central Minnesota

CITY           SKY/WX    TMP DP  RH WIND       PRES   REMARKS
ST CLOUD       FAIR      53  29  39 N6        30.20S
SAUK CENTRE    FAIR      51  28  41 N9        30.24R
PAYNESVILLE    FAIR      52  32  46 NW6       30.23R
AITKIN         FAIR      46  27  46 NW8G16    30.22R
PINE RIVER     FAIR      45  25  45 N12       30.28R
BRAINERD       FAIR      49  25  39 N14       30.24R
STAPLES        FAIR      48  25  40 N12       30.24S
LONG PRAIRIE   FAIR      50  30  46 NW8       30.24S
LITTLE FALLS   FAIR      52  14  22 N9        30.23R
LITCHFIELD     FAIR      54  32  43 N9        30.22S
BUFFALO        FAIR      52  28  39 N6        30.21S
MAPLE LAKE     FAIR      52  34  51 CALM      30.21S
HUTCHINSON     FAIR      51  38  60 NW8       30.22S
$$
MNZ037-044-045-052-053-250200-
   East Central Minnesota

CITY           SKY/WX    TMP DP  RH WIND       PRES   REMARKS
PRINCETON      FAIR      52  27  37 N8        30.21S
MORA           FAIR      50  27  40 NW12      30.22R
CAMBRIDGE      FAIR      54  32  43 NW7       30.20S
RUSH CITY      FAIR      51  29  43 NW7       30.20R
MOOSE LAKE     FAIR      48  27  43 N12       30.19R
HINCKLEY       FAIR      52  28  40 N9        30.20R
CLOQUET        FAIR      46  21  36 NW10      30.21R
MCGREGOR       FAIR      48  28  46 N10G18    30.23R
$$
MNZ071>073-080-081-089-090-097-098-250200-
   Southwest Minnesota

CITY           SKY/WX    TMP DP  RH WIND       PRES   REMARKS
MONTEVIDEO     CLEAR     50  36  57 N14G20    30.26S
GRANITE FALLS  CLEAR     52  38  60 NW9       30.26S
CANBY          CLEAR     49  35  58 N12       30.29S
MARSHALL       CLEAR     49  38  65 N15       30.26R
REDWOOD FALLS  PTCLDY    51  36  56 N10       30.22F
OLIVIA         CLEAR     50  36  57 N13       30.22S
PIPESTONE      CLEAR    N/A N/A N/A N6        30.26R
WINDOM         CLOUDY    46  28  49 N9        30.23S
WORTHINGTON    CLOUDY    44  40  85 N15       30.24S
JACKSON        CLOUDY    45  41  87 N9        30.22S
TRACY          CLEAR     48  42  80 N7        30.24F
SLAYTON        CLOUDY    45  40  83 N12       30.25F
$$
MNZ065>067-074>077-082>085-091>093-250200-
   South Central Minnesota

CITY           SKY/WX    TMP DP  RH WIND       PRES   REMARKS
MANKATO        CLOUDY    51  41  68 N12       30.20S
NEW ULM        CLOUDY    50  37  62 N8        30.21F
ST JAMES       CLOUDY    48  43  81 NW9       30.23S
FAIRMONT       CLOUDY    48  44  86 N16       30.21R
GLENCOE        FAIR      52  38  58 N3        30.20S
OWATONNA       FAIR      52  39  62 NW10      30.17R
WASECA         FAIR      52  43  71 NW10      30.20R
ALBERT LEA     FAIR      52  37  58 N12G17    30.16R
$$
MNZ078>079-086>088-094>096-250200-
   Southeast Minnesota

CITY           SKY/WX    TMP DP  RH WIND       PRES   REMARKS
ROCHESTER      FAIR      52  38  58 N20G25    30.14R
RED WING       FAIR      54  34  47 N9        30.16R
STANTON        FAIR      53  39  59 N12       30.16S
DODGE CENTER   FAIR      50  37  62 N14G21    30.16R
WINONA         MOCLDY    57  34  41 N8G20     30.10R
AUSTIN         FAIR      54  39  58 N14G21    30.14R
PRESTON        FAIR      55  36  49 N15G23    30.11R
$$
ABBREVIATIONS USED IN REMARKS
   TC - TEMPERATURES IN CELSIUS
  WCI - WIND CHILL INDEX
   HX - HEAT INDEX
  VSB - VISIBILITY
$$



USA.gov is the U.S. government's official web portal to all federal, state and local government web resources and services.